Location: Newark
(33.6439°N, 114.9881°W)
Time: 18:23:01
(UTC+00:00)

Envisat - Pass Details

Date: 28 March 2019
Orbit: 764 x 766 km, 98.2° (Epoch: 24 April)

Event Time Altitude Azimuth Distance (km) Brightness Sun altitude
Rises 03:09:38 0° 194° (SSW) 3,217 6.2 -15.8°
Reaches altitude 10° 03:12:15 10° 206° (SSW) 2,295 5.6 -16.3°
Maximum altitude 03:16:30 27° 264° (W) 1,440 5.2 -17.2°
Drops below altitude 10° 03:20:46 10° 321° (NW) 2,306 6.3 -18.0°
Sets 03:23:25 0° 334° (NNW) 3,236 6.9 -18.5°
